Stations météo

réclame
Mon MeteoGroup
Films Kyrkby, Suède (2456): Température de l'air & dewpoint: 18.01.2020 16:00:00 - 24.01.2020 16:00:00 (CET)Films Kyrkby, Suède (2456): Vitesse du vent & gusts: 18.01.2020 16:00:00 - 24.01.2020 16:00:00 (CET)Films Kyrkby, Suède (2456): Direction du vent: 18.01.2020 16:00:00 - 24.01.2020 16:00:00 (CET)Films Kyrkby, Suède (2456): reduced air pressure: 18.01.2020 16:00:00 - 24.01.2020 16:00:00 (CET)Films Kyrkby, Suède (2456): visibility: 18.01.2020 16:00:00 - 24.01.2020 16:00:00 (CET)Films Kyrkby, Suède (2456): Quantités de précipitations: 18.01.2020 16:00:00 - 24.01.2020 16:00:00 (CET)
Date & Time tt [°C] td [°C] ff [km/h] ff [knt] fx [km/h] fx [knt] dd ppp [hPa] vv [km] rr [mm]
24.01.2020 16:00:00 3,5 -0,6 4 2 12 6 WSW 1001,5 50 0,0
24.01.2020 15:00:00 4,4 0,0 3 2 9 5 SW 1001,7 50 0,0
24.01.2020 14:00:00 5,7 0,5 3 1 15 8 SW 1002,2 50 0,0
24.01.2020 13:00:00 6,2 0,5 7 4 18 10 W 1002,5 50 0,0
24.01.2020 12:00:00 5,9 1,8 4 2 13 7 WSW 1002,8 50 0,0
24.01.2020 11:00:00 4,3 1,8 4 2 14 7 WSW 1003,2 50 0,0
24.01.2020 10:00:00 0,9 0,6 3 2 6 3 SW 1002,9 40 0,0
24.01.2020 09:00:00 1,4 1,0 2 1 6 3 SW 1002,7 43 0,0
24.01.2020 08:00:00 1,4 0,8 3 2 7 4 SW 1003,2 43 0,0
24.01.2020 07:00:00 1,3 0,6 0 0 9 5 N 1002,6 48 0,0
24.01.2020 06:00:00 1,8 1,1 5 3 10 5 SSW 1002,7 50 0,0
24.01.2020 05:00:00 2,4 1,5 7 4 12 7 SW 1003,3 50 0,0
24.01.2020 04:00:00 1,5 1,1 3 2 8 4 SSW 1003,8 46 0,0
24.01.2020 03:00:00 2,1 1,1 3 1 8 4 SSW 1004,2 50 0,0
24.01.2020 02:00:00 4,1 1,8 4 2 16 9 SW 1004,7 50 0,0
24.01.2020 01:00:00 4,6 2,0 8 5 18 10 SW 1004,5 50 0,0
24.01.2020 00:00:00 4,7 1,5 8 5 20 11 SW 1004,8 50 0,0
23.01.2020 23:00:00 4,5 1,4 6 4 19 10 SW 1005,4 50 0,0
23.01.2020 22:00:00 4,6 1,1 7 4 19 11 SW 1005,8 50 0,0
23.01.2020 21:00:00 3,9 0,8 8 5 15 8 SW 1006,3 50 0,0
23.01.2020 20:00:00 3,8 0,1 8 5 20 11 SW 1006,9 50 0,0
23.01.2020 19:00:00 3,5 -0,3 6 3 23 12 SW 1007,6 50 0,0
23.01.2020 18:00:00 3,0 -0,6 8 5 19 10 WSW 1008,1 50 0,0
23.01.2020 17:00:00 2,7 -0,8 6 3 22 12 WSW 1008,7 50 0,0
23.01.2020 16:00:00 2,3 -1,0 9 5 24 13 SW 1009,4 50 0,0
23.01.2020 15:00:00 2,2 -1,2 11 6 23 13 SW 1009,9 50 0,0
23.01.2020 14:00:00 1,7 -2,1 10 5 24 13 SW 1011,2 50 0,0
23.01.2020 13:00:00 1,2 -2,7 10 5 22 12 SSW 1011,7 50 0,0
23.01.2020 12:00:00 0,2 -3,7 11 6 27 15 SW 1013,2 50 0,0
23.01.2020 11:00:00 -0,3 -4,0 12 7 23 13 SSW 1014,7 50 0,0
23.01.2020 10:00:00 -1,3 -4,8 9 5 22 12 SSW 1015,8 50 0,0
23.01.2020 09:00:00 -2,0 -5,8 7 4 18 10 SSW 1017,0 45 0,0
23.01.2020 08:00:00 -3,3 -6,3 6 3 15 8 SSW 1018,9 42 0,0
23.01.2020 07:00:00 -4,1 -6,4 4 2 8 4 S 1020,1 46 0,0
23.01.2020 06:00:00 -3,6 -6,7 4 2 8 4 SSW 1021,1 45 0,0
23.01.2020 05:00:00 -3,3 -6,4 3 1 10 5 SSW 1022,1 45 0,0
23.01.2020 04:00:00 -2,6 -6,4 4 2 9 5 SW 1022,9 50 0,0
23.01.2020 03:00:00 -2,4 -6,2 3 2 10 6 WSW 1023,6 50 0,0
23.01.2020 02:00:00 -1,9 -6,1 4 2 13 7 W 1023,7 50 0,0
23.01.2020 01:00:00 -1,5 -5,9 4 2 14 8 WSW 1024,1 50 0,0
23.01.2020 00:00:00 -1,0 -5,8 5 3 18 10 WNW 1023,7 50 0,0
22.01.2020 23:00:00 0,0 -5,6 8 4 17 9 WNW 1024,3 50 0,0
22.01.2020 22:00:00 -0,1 -5,5 3 1 16 9 WNW 1024,0 50 0,0
22.01.2020 21:00:00 0,9 -5,1 5 3 16 9 WNW 1024,0 50 0,0
22.01.2020 20:00:00 1,3 -4,8 7 4 22 12 WNW 1023,5 50 0,0
22.01.2020 19:00:00 1,3 -4,2 8 4 19 10 WNW 1023,5 50 0,0
22.01.2020 18:00:00 1,2 -4,7 6 3 16 9 WNW 1022,8 50 0,0
22.01.2020 17:00:00 1,4 -4,7 6 3 16 9 WNW 1022,2 50 0,0
22.01.2020 16:00:00 1,9 -4,4 4 2 18 10 WNW 1021,7 50 0,0
22.01.2020 15:00:00 3,1 -3,9 7 4 28 15 NW 1020,8 50 0,0
22.01.2020 14:00:00 3,9 -4,1 10 5 45 25 NNW 1019,6 50 0,0
22.01.2020 13:00:00 4,5 -4,0 11 6 43 23 NNW 1018,8 50 0,0
22.01.2020 12:00:00 4,4 -3,9 12 7 37 20 NNW 1017,4 50 0,0
22.01.2020 11:00:00 3,9 -4,6 12 6 40 22 NNW 1016,3 50 0,0
22.01.2020 10:00:00 3,1 -5,8 9 5 32 17 NW 1015,2 50 0,0
22.01.2020 09:00:00 1,8 -6,3 9 5 24 13 WNW 1013,9 50 0,0
22.01.2020 08:00:00 1,7 -6,4 11 6 31 17 W 1012,6 50 0,0
22.01.2020 07:00:00 1,7 -5,9 10 5 29 15 W 1011,9 50 0,0
22.01.2020 06:00:00 1,9 -5,3 12 7 29 16 W 1011,9 50 0,0
22.01.2020 05:00:00 2,4 -5,0 14 8 24 13 W 1011,5 50 0,0
22.01.2020 04:00:00 3,0 -5,2 13 7 29 16 W 1011,6 50 0,0
22.01.2020 03:00:00 3,4 -4,8 14 7 28 15 W 1011,8 50 0,0
22.01.2020 02:00:00 3,5 -4,5 10 5 24 13 W 1012,1 50 0,0
22.01.2020 01:00:00 4,2 -4,3 13 7 30 16 WNW 1012,1 50 0,0
22.01.2020 00:00:00 3,8 -3,9 9 5 24 13 W 1012,2 50 0,0
21.01.2020 23:00:00 4,3 -4,2 10 5 29 16 W 1012,4 50 0,0
21.01.2020 22:00:00 4,8 -4,0 9 5 30 16 W 1013,3 50 0,0
21.01.2020 21:00:00 5,1 -4,2 12 7 32 17 WSW 1013,7 50 0,0
21.01.2020 20:00:00 5,1 -3,2 13 7 31 17 W 1014,2 50 0,0
21.01.2020 19:00:00 3,6 -3,2 7 4 20 11 WSW 1015,2 50 0,0
21.01.2020 18:00:00 4,4 -3,4 7 4 22 12 WSW 1016,5 50 0,0
21.01.2020 17:00:00 5,1 -1,8 10 5 25 14 WSW 1016,9 50 0,0
21.01.2020 16:00:00 4,9 -0,1 7 4 21 11 W 1017,5 50 0,0
21.01.2020 15:00:00 4,6 0,2 8 4 20 11 WSW 1016,8 50 0,0
21.01.2020 14:00:00 5,1 -0,1 7 4 18 10 WSW 1017,0 50 0,0
21.01.2020 13:00:00 6,2 1,5 7 4 23 12 W 1016,5 50 0,0
21.01.2020 12:00:00 6,1 1,2 8 5 18 10 W 1017,2 50 0,0
21.01.2020 11:00:00 5,3 2,6 5 3 14 8 W 1016,5 50 0,0
21.01.2020 10:00:00 5,8 4,4 5 3 17 9 W 1016,2 50 0,0
21.01.2020 09:00:00 6,4 5,2 7 4 17 9 W 1015,6 50 0,3
21.01.2020 08:00:00 6,7 5,5 8 4 24 13 NW 1014,7 4,7 0,6
21.01.2020 07:00:00 7,5 4,5 6 4 25 13 W 1013,6 34 0,0
21.01.2020 06:00:00 7,7 4,3 11 6 27 15 W 1013,0 40 0,0
21.01.2020 05:00:00 8,1 4,5 11 6 32 17 W 1012,9 50 0,0
21.01.2020 04:00:00 8,1 4,7 11 6 30 16 WSW 1013,3 50 0,0
21.01.2020 03:00:00 8,3 4,5 14 8 39 21 WSW 1013,9 50 0,0
21.01.2020 02:00:00 9,3 4,5 14 8 40 22 WSW 1014,2 50 0,0
21.01.2020 01:00:00 9,0 4,0 13 7 35 19 WSW 1014,5 50 0,0
21.01.2020 00:00:00 7,9 3,4 13 7 34 18 WSW 1015,2 50 0,0
20.01.2020 23:00:00 7,0 2,7 14 7 33 18 WSW 1016,4 50 0,0
20.01.2020 22:00:00 6,9 2,4 14 7 33 18 WSW 1017,1 50 0,0
20.01.2020 21:00:00 6,3 2,0 10 6 29 16 WSW 1017,7 50 0,0
20.01.2020 20:00:00 6,2 1,7 13 7 28 15 WSW 1018,4 50 0,0
20.01.2020 19:00:00 5,7 1,4 11 6 29 16 SW 1019,1 50 0,0
20.01.2020 18:00:00 5,3 0,9 11 6 26 14 SW 1020,0 50 0,0
20.01.2020 17:00:00 5,1 0,7 11 6 26 14 SW 1020,2 50 0,0
20.01.2020 16:00:00 4,8 0,4 11 6 29 15 WSW 1021,4 50 0,0
20.01.2020 15:00:00 4,7 0,3 11 6 29 16 SW 1021,9 49 0,0
20.01.2020 14:00:00 4,5 -0,3 13 7 29 15 SW 1022,5 50 0,0
20.01.2020 13:00:00 4,2 -0,6 12 6 29 16 WSW 1023,6 50 0,0
20.01.2020 12:00:00 3,6 -0,9 11 6 25 14 WSW 1024,3 50 0,0
20.01.2020 11:00:00 3,0 -1,4 9 5 23 13 SW 1024,7 43 0,0
20.01.2020 10:00:00 2,5 -2,4 10 5 24 13 SW 1025,1 50 0,0
20.01.2020 09:00:00 1,5 -3,2 8 4 21 11 SW 1025,5 50 0,0
20.01.2020 08:00:00 0,7 -4,0 9 5 17 9 SSW 1026,0 50 0,0
20.01.2020 07:00:00 0,2 -4,6 9 5 16 8 SW 1026,9 50 0,0
20.01.2020 06:00:00 0,1 -4,7 7 4 15 8 SSW 1027,2 50 0,0
20.01.2020 05:00:00 0,0 -5,0 6 4 15 8 SSW 1027,9 50 0,0
20.01.2020 04:00:00 0,1 -5,1 8 4 17 9 SW 1029,0 50 0,0
20.01.2020 03:00:00 0,2 -4,8 6 3 14 8 SW 1029,7 50 0,0
20.01.2020 02:00:00 0,5 -4,5 5 3 13 7 SW 1030,5 50 0,0
20.01.2020 01:00:00 0,6 -4,6 5 3 14 8 W 1029,9 50 0,0
20.01.2020 00:00:00 0,5 -4,3 4 2 13 7 WNW 1030,4 50 0,0
19.01.2020 23:00:00 0,4 -4,2 4 2 14 8 W 1030,6 50 0,0
19.01.2020 22:00:00 0,5 -4,0 4 2 13 7 SW 1030,5 50 0,0
19.01.2020 21:00:00 2,0 -3,7 5 3 14 8 SW 1029,7 50 0,0
19.01.2020 20:00:00 3,0 -3,4 5 3 17 9 WSW 1029,2 50 0,0
19.01.2020 19:00:00 3,5 -3,3 8 4 21 12 W 1028,9 50 0,0
19.01.2020 18:00:00 3,7 -3,1 6 3 18 10 W 1028,1 50 0,0
19.01.2020 17:00:00 4,5 -3,0 9 5 26 14 W 1026,9 50 0,0
19.01.2020 16:00:00 4,3 -2,6 8 4 16 9 WNW 1025,7 50 0,0
19.01.2020 15:00:00 5,0 -2,1 8 4 26 14 WNW 1025,1 50 0,0
19.01.2020 14:00:00 5,6 -1,8 9 5 25 14 WNW 1024,1 50 0,0
19.01.2020 13:00:00 5,2 -1,3 10 5 23 12 WNW 1023,0 50 0,0
19.01.2020 12:00:00 4,8 -0,6 9 5 29 16 WNW 1022,0 50 0,0
19.01.2020 11:00:00 3,1 -0,5 6 3 18 10 W 1020,9 50 0,0
19.01.2020 10:00:00 2,1 -0,7 8 5 18 10 W 1019,8 50 0,0
19.01.2020 09:00:00 1,6 -0,5 6 3 15 8 W 1018,4 50 0,0
19.01.2020 08:00:00 1,3 -0,2 4 2 16 9 W 1017,3 50 0,0
19.01.2020 07:00:00 1,2 0,5 5 3 12 7 WSW 1015,9 50 0,0
19.01.2020 06:00:00 0,7 0,1 3 2 10 5 SW 1014,6 50 0,0
19.01.2020 05:00:00 1,8 1,2 4 2 12 7 W 1013,5 50 0,0
19.01.2020 04:00:00 2,4 1,7 3 2 11 6 W 1012,2 50 0,0
19.01.2020 03:00:00 3,2 2,5 5 3 19 10 W 1010,9 50 0,0
19.01.2020 02:00:00 4,0 3,0 6 3 21 12 W 1009,3 50 0,0
19.01.2020 01:00:00 4,4 3,5 8 4 22 12 W 1007,8 50 0,1
19.01.2020 00:00:00 4,3 3,4 8 5 23 13 WSW 1006,5 12 0,3
18.01.2020 23:00:00 4,3 3,1 13 7 24 13 SW 1005,9 7 0,0
18.01.2020 22:00:00 4,4 2,9 11 6 26 14 SW 1005,3 50 0,0
18.01.2020 21:00:00 4,5 3,0 11 6 30 16 SW 1005,2 50 0,0
18.01.2020 20:00:00 5,0 2,5 15 8 30 16 SW 1005,0 32 0,0
18.01.2020 19:00:00 5,1 3,0 11 6 29 15 SSW 1004,6 37 0,0
18.01.2020 18:00:00 5,0 3,7 8 4 21 11 SSW 1004,5 46 0,0
18.01.2020 17:00:00 5,3 4,1 8 4 21 11 SSW 1004,5 44 0,0
18.01.2020 16:00:00 5,0 4,1 6 4 24 13 SSW 1004,2 18 0,0

tt = Température de l'air
td = dewpoint
ff = Vitesse du vent
fx = gusts
dd = Direction du vent
ppp = reduced air pressure
vv = visibility
rr = Quantités de précipitations

stations d'obs. à proximité